Regional Weather Roundup
Issued by NWS Sterling, VA

Home | Current Version | Previous Version | Graphics & Text | Print | Product List | Glossary On
Versions: 1 2 3 4 5 6 7 8 9 10 11 12 13 14 15 16 17 18 19 20 21 22 23 24 25 26 27 28 29 30 31 32 33 34 35 36 37 38 39 40 41 42 43 44 45 46 47 48 49 50
000
ASUS41 KLWX 242011
RWRLWX

REGIONAL WEATHER ROUNDUP
NATIONAL WEATHER SERVICE BALTIMORE MD/WASHINGTON DC
300 PM EST FRI NOV 24 2017

Note: "FAIR" indicates few or no clouds below 12,000 feet
with no significant weather and/or obstructions to visibility.
 TC=TEMPERATURE CELSIUS

 * =Non NWS site. Station does not report precipitation (e.g. rain,
    snow, etc.), thunder, or fog.

DCZ001-MDZ009-015-VAZ040>042-051-053>054-242100-
WASHINGTON METRO

CITY           SKY/WX    TMP DP  RH WIND       PRES   REMARKS
WASHINGTON NAT MOSUNNY   53  33  46 S9        29.99F
DULLES         SUNNY     55  26  32 S9        29.96F
ANDREWS AFB    SUNNY     54  25  32 S9        29.97F
FT BELVOIR     SUNNY     53  28  37 S7        29.98F
QUANTICO       SUNNY     52  39  61 S7        30.00F
COLLEGE PARK*  SUNNY     53  26  35 S3        29.97F
LEESBURG*      SUNNY     55  30  38 SE7       29.96F
MANASSAS*      SUNNY     55  28  35 S9        29.97F
GAITHERSBURG*  SUNNY     55  25  31 SE6       29.96F

$$

MDZ006>007-011-014-242100-
BALTIMORE METRO

CITY           SKY/WX    TMP DP  RH WIND       PRES   REMARKS
BWI AIRPORT    MOSUNNY   54  23  30 VRB6      29.97F
MD SCIENCE CTR   N/A     52  32  46 MISG      29.95F
MARTIN STATE   SUNNY     50  34  53 SE9       30.00F
ANNAPOLIS      SUNNY     50  39  66 SE12      29.99F
FORT MEADE*    SUNNY     54  25  32 SW7       29.99F

$$

MDZ012-015-019>023-242100-
MARYLAND EASTERN SHORE

CITY           SKY/WX    TMP DP  RH WIND       PRES   REMARKS
OCEAN CITY     SUNNY     48  35  60 SE5       30.02F
SALISBURY      SUNNY     53  26  35 CALM      29.99F
EASTON*        SUNNY     54  30  40 SW5       30.03F

$$

MDZ017>025-242100-
SOUTHERN MARYLAND

CITY           SKY/WX    TMP DP  RH WIND       PRES   REMARKS
PATUXENT RIVER SUNNY     50  32  50 SE9       30.00F
ST INIGOES     SUNNY     51  29  42 CALM      30.00F
LEONARDTOWN*   SUNNY     50  27  40 SW5       30.01S

$$

MDZ003>005-242100-
NORTH CENTRAL MARYLAND

CITY           SKY/WX    TMP DP  RH WIND       PRES   REMARKS
FREDERICK*     SUNNY     55  19  24 S6        29.98F
HAGERSTOWN APT SUNNY     54  25  32 S10       29.92F
WESTMINSTER*   SUNNY     54  27  35 S7        29.94F

$$

MDZ501>502-242100-
WESTERN MARYLAND

CITY           SKY/WX    TMP DP  RH WIND       PRES   REMARKS
OAKLAND*       SUNNY     50  18  27 SW5       29.85F
CUMBERLAND*    SUNNY     55  23  28 SW5       29.94F

$$

VAZ025>031-242100-
SHENANDOAH VALLEY

CITY           SKY/WX    TMP DP  RH WIND       PRES   REMARKS
WINCHESTER*    SUNNY     54  23  30 S6        29.92F
FRONT ROYAL*   SUNNY     57  25  28 CALM      29.91F
LURAY*         SUNNY     57  25  28 CALM      29.91F
NEW MARKET*    SUNNY     57  18  21 SW7       29.90F
STAUNTON*      SUNNY     55  23  28 S8        29.93F
WAYNESBORO*    SUNNY     55  25  31 E8        29.93F

$$

WVZ021-048>050-054>055-242100-
EASTERN WEST VIRGINIA PANHANDLE

CITY           SKY/WX    TMP DP  RH WIND       PRES   REMARKS
MARTINSBURG    SUNNY     55  24  30 SE8       29.91F
PETERSBURG*    SUNNY     59  22  24 CALM      29.87F

$$

VAZ036>039-050-242100-
CENTRAL FOOTHILLS

CITY           SKY/WX    TMP DP  RH WIND       PRES   REMARKS
CHARLOTTESVILL SUNNY     56  26  31 SE6       29.95F
CULPEPER*      SUNNY     56  26  31 S8        29.97F
ORANGE*        SUNNY     54  28  37 SW5       29.96F
GORDONSVILLE*  SUNNY     54  29  39 S5        29.96F
WARRENTON*     NOT AVBL

$$

VAZ055>057-242100-
NORTH AND CENTRAL PIEDMONT

CITY           SKY/WX    TMP DP  RH WIND       PRES   REMARKS
FREDERICKSBRG* SUNNY     55  31  39 S6        29.98F
STAFFORD*      SUNNY     54  27  35 S7        30.02S

$$

NCZ024-NYZ072-PAZ021-071-VAZ022-071-242100-
OTHER REGIONAL OBSERVATIONS

CITY           SKY/WX    TMP DP  RH WIND       PRES   REMARKS
NEW YORK CITY  SUNNY     50  22  33 VRB5      29.98F
PHILADELPHIA   SUNNY     51  26  37 SW6       29.98F
PITTSBURGH     MOSUNNY   53  19  26 S12       29.85F
ROANOKE        SUNNY     57  26  30 SE9       29.96F
RICHMOND       MOSUNNY   55  24  30 CALM      29.99F
RALEIGH        MOSUNNY   57  24  28 VRB3      29.98F

$$

ANZ530>537-242100-
MARINE OBSERVATIONS

STATION/POSITION TIME  TEMP    WIND        PRES
                       AIR SEA DIR/SP/G
                 (UTC) (F)     (DEG/KT/KT) (MB)
THOMAS PT LIGHT  2000   48 51  160/ 10/ 11   N/A
BALT KEY BRIDGE  1942   48     110/ 10/ 10 1015.1F
COVE POINT       1942   47     180/  9/ 10 1016.6F
LEWISETTA        1942   47 50  110/  8/  9 1015.8F
SOLOMONS ISLAND  1942   51 53  180/  5/  6 1015.5F
PINEY POINT      1942          110/  5/  6   N/A

$$




USA.gov is the U.S. government's official web portal to all federal, state and local government web resources and services.